SHT12Q EGLL-EGNT

Flight info

Callsign SHT12Q
Flight time 0h 38m
Altitude 30000
Route UMLAT T418 WELIN T420 AKUPA UY250 RIMTO
Aircraft A20N/M-SDE2E3FGHIRWXY/LB1

Departure

Time 2026-05-04 10:16
Airport London Heathrow Airport (EGLL)

Arrival

Time 2026-05-04 10:54
Airport Newcastle International Airport (EGNT)
Time Latitude Longitude Altitude Speed Heading
2026-05-04 09:55 51.47019 -0.43887 93 ft 0 kts 90°
2026-05-04 10:08 51.47019 -0.43917 94 ft 2 kts 90°
2026-05-04 10:08 51.47019 -0.43943 92 ft 2 kts 90°
2026-05-04 10:08 51.47019 -0.43970 94 ft 2 kts 90°
2026-05-04 10:08 51.47019 -0.43995 91 ft 2 kts 89°
2026-05-04 10:09 51.47019 -0.44021 93 ft 2 kts 97°
2026-05-04 10:09 51.47022 -0.44047 92 ft 2 kts 133°
2026-05-04 10:09 51.47030 -0.44052 91 ft 0 kts 187°
2026-05-04 10:10 51.47028 -0.44052 91 ft 1 kts 187°
2026-05-04 10:10 51.46969 -0.44058 92 ft 17 kts 181°
2026-05-04 10:10 51.46844 -0.44059 90 ft 18 kts 179°
2026-05-04 10:11 51.46717 -0.44056 93 ft 18 kts 177°
2026-05-04 10:11 51.46670 -0.43982 92 ft 6 kts 99°
2026-05-04 10:11 51.46666 -0.43916 90 ft 6 kts 95°
2026-05-04 10:11 51.46660 -0.43856 90 ft 2 kts 122°
2026-05-04 10:12 51.46646 -0.43842 90 ft 7 kts 154°
2026-05-04 10:12 51.46611 -0.43832 89 ft 0 kts 181°
2026-05-04 10:12 51.46609 -0.43832 89 ft 0 kts 181°
2026-05-04 10:13 51.46508 -0.43858 92 ft 21 kts 220°
2026-05-04 10:14 51.46493 -0.43950 89 ft 0 kts 272°
2026-05-04 10:14 51.46493 -0.43954 89 ft 1 kts 272°
2026-05-04 10:16 51.47078 -0.53156 2358 ft 203 kts 298°
2026-05-04 10:16 51.47812 -0.55280 2793 ft 235 kts 299°
2026-05-04 10:16 51.48644 -0.57709 3422 ft 257 kts 298°
2026-05-04 10:16 51.49496 -0.60274 4501 ft 260 kts 297°
2026-05-04 10:17 51.50342 -0.62868 5583 ft 263 kts 297°
2026-05-04 10:17 51.51244 -0.65439 6602 ft 267 kts 304°
2026-05-04 10:19 51.65302 -0.69236 11359 ft 365 kts 355°
2026-05-04 10:19 51.67909 -0.69517 11697 ft 385 kts 355°
2026-05-04 10:19 51.70630 -0.69815 12270 ft 396 kts 355°
2026-05-04 10:19 51.73372 -0.70118 13008 ft 403 kts 355°
2026-05-04 10:20 51.76184 -0.70431 13778 ft 408 kts 355°
2026-05-04 10:20 51.79041 -0.70751 14461 ft 413 kts 355°
2026-05-04 10:20 51.81924 -0.71074 15148 ft 418 kts 355°
2026-05-04 10:20 51.84645 -0.71379 15852 ft 419 kts 355°
2026-05-04 10:21 51.87551 -0.71705 16754 ft 420 kts 355°
2026-05-04 10:21 51.90504 -0.72038 17272 ft 429 kts 355°
2026-05-04 10:21 51.93495 -0.72376 17895 ft 434 kts 355°
2026-05-04 10:21 51.96509 -0.73020 18513 ft 438 kts 349°
2026-05-04 10:22 52.02536 -0.74935 19656 ft 445 kts 346°
2026-05-04 10:22 52.05573 -0.76021 20227 ft 448 kts 345°
2026-05-04 10:22 52.08588 -0.77138 20784 ft 452 kts 345°
2026-05-04 10:23 52.11660 -0.78291 21347 ft 455 kts 345°
2026-05-04 10:23 52.14766 -0.79459 21893 ft 459 kts 345°
2026-05-04 10:25 52.37160 -0.87831 25133 ft 483 kts 345°
2026-05-04 10:25 52.40411 -0.89048 25527 ft 486 kts 345°
2026-05-04 10:25 52.43701 -0.90282 26076 ft 484 kts 345°
2026-05-04 10:25 52.46980 -0.91513 26671 ft 482 kts 345°
2026-05-04 10:26 52.50254 -0.92745 27235 ft 481 kts 345°
2026-05-04 10:26 52.53519 -0.93975 27768 ft 480 kts 345°
2026-05-04 10:26 52.56772 -0.95203 28300 ft 479 kts 346°
2026-05-04 10:26 52.60017 -0.96431 28835 ft 477 kts 346°
2026-05-04 10:27 52.63251 -0.97657 29362 ft 476 kts 346°
2026-05-04 10:27 52.66439 -0.98867 29839 ft 476 kts 346°
2026-05-04 10:27 52.69673 -1.00096 30029 ft 479 kts 346°
2026-05-04 10:28 52.76201 -1.02583 30050 ft 480 kts 346°
2026-05-04 10:28 52.82704 -1.05067 30048 ft 479 kts 346°
2026-05-04 10:29 52.89195 -1.07555 30053 ft 478 kts 347°
2026-05-04 10:29 52.95691 -1.10051 30049 ft 478 kts 347°
2026-05-04 10:30 53.02130 -1.12534 30068 ft 480 kts 347°
2026-05-04 10:30 53.08661 -1.15060 30070 ft 482 kts 347°
2026-05-04 10:31 53.15192 -1.17593 30071 ft 481 kts 347°
2026-05-04 10:32 53.37878 -1.26457 30076 ft 475 kts 347°
2026-05-04 10:33 53.44340 -1.28225 30069 ft 473 kts 355°
2026-05-04 10:33 53.50914 -1.29173 30078 ft 473 kts 356°
2026-05-04 10:34 53.57442 -1.30626 30072 ft 474 kts 346°
2026-05-04 10:34 53.63510 -1.34961 30079 ft 475 kts 332°
2026-05-04 10:35 53.69204 -1.40619 30072 ft 472 kts 329°
2026-05-04 10:35 53.74762 -1.46318 29995 ft 466 kts 332°
2026-05-04 10:36 53.80220 -1.51909 30051 ft 452 kts 333°
2026-05-04 10:36 53.82906 -1.54656 29773 ft 450 kts 332°
2026-05-04 10:36 53.85589 -1.57401 29494 ft 451 kts 332°
2026-05-04 10:37 53.88283 -1.60161 29203 ft 452 kts 332°
2026-05-04 10:37 53.90982 -1.62932 28925 ft 453 kts 332°
2026-05-04 10:37 53.93669 -1.65696 28291 ft 450 kts 332°
2026-05-04 10:37 53.96320 -1.68425 27279 ft 453 kts 331°
2026-05-04 10:39 54.12977 -1.84848 21907 ft 457 kts 343°
2026-05-04 10:39 54.16048 -1.85708 21244 ft 453 kts 359°
2026-05-04 10:39 54.19182 -1.85194 20921 ft 452 kts
2026-05-04 10:40 54.22270 -1.84263 20442 ft 449 kts 10°
2026-05-04 10:40 54.25336 -1.83272 19710 ft 446 kts 10°
2026-05-04 10:40 54.28380 -1.82286 18985 ft 444 kts 10°
2026-05-04 10:40 54.31405 -1.81316 18241 ft 441 kts
2026-05-04 10:41 54.34408 -1.80360 17457 ft 437 kts
2026-05-04 10:41 54.37388 -1.79414 16747 ft 433 kts
2026-05-04 10:41 54.39347 -1.78793 16380 ft 431 kts
2026-05-04 10:41 54.42286 -1.77862 15909 ft 428 kts
2026-05-04 10:42 54.45176 -1.76946 14918 ft 417 kts
2026-05-04 10:42 54.48014 -1.76045 13769 ft 411 kts
2026-05-04 10:42 54.50827 -1.75153 12834 ft 411 kts
2026-05-04 10:42 54.53634 -1.74262 12272 ft 407 kts
2026-05-04 10:43 54.56387 -1.73387 11607 ft 401 kts
2026-05-04 10:44 54.73754 -1.66849 8697 ft 303 kts 17°
2026-05-04 10:45 54.75697 -1.65670 8425 ft 288 kts 20°
2026-05-04 10:45 54.77475 -1.64161 7890 ft 282 kts 27°
2026-05-04 10:45 54.79162 -1.62473 7282 ft 279 kts 29°
2026-05-04 10:45 54.80828 -1.60768 6676 ft 276 kts 29°
2026-05-04 10:46 54.82480 -1.59070 6133 ft 276 kts 29°
2026-05-04 10:46 54.84087 -1.57497 5742 ft 273 kts 26°
2026-05-04 10:46 54.85762 -1.55962 5333 ft 271 kts 26°
2026-05-04 10:46 54.87423 -1.54455 5088 ft 268 kts 26°
2026-05-04 10:47 54.89078 -1.52958 5052 ft 268 kts 26°
2026-05-04 10:47 54.90717 -1.51473 5020 ft 269 kts 26°
2026-05-04 10:47 54.92383 -1.49960 5000 ft 269 kts 26°
2026-05-04 10:47 54.94036 -1.48453 4987 ft 269 kts 26°
2026-05-04 10:49 55.04770 -1.47293 2863 ft 207 kts 311°
2026-05-04 10:49 55.05720 -1.49074 2707 ft 194 kts 310°
2026-05-04 10:50 55.06616 -1.50772 2436 ft 184 kts 309°
2026-05-04 10:51 55.05603 -1.62183 774 ft 130 kts 245°
2026-05-04 10:52 55.05221 -1.63624 611 ft 131 kts 243°
2026-05-04 10:52 55.04837 -1.65071 486 ft 131 kts 243°
2026-05-04 10:52 55.04455 -1.66501 365 ft 131 kts 242°
2026-05-04 10:54 55.03665 -1.70582 270 ft 0 kts 319°
2026-05-04 10:54 55.03666 -1.70584 270 ft 0 kts 319°